[[{"header":{"parameterUnit":"m.s-1","parameterCategory":1,"la1":30.2991,"la2":30.254,"lo1":-89.0895,"lo2":-89.0444,"dy":0.0017,"dx":0.0017,"nx":28,"ny":28,"refTime":"2023-03-13T21:00:00:Z","depth":0,"parameterNumber":2,"parameterNumberName":"U-component_of_WINDS"},"data":[0,0,0,0,0,0,0,0,0,0,0,0,0,0,0,0,0,0,0,0,0,0,0,0,0,0,0,0,0,0,0,0,0,0,0,0,0,0,0,0,0,0,0,0,0,0,0,0,0,0,0,0,0,0,0,0,0,0,0.1296,0.1296,0,0.1281,0.1281,0.128,0.1317,0.1318,0.1319,0.132,0.13,0.1298,0.1296,0,0,0,0,0,0,0,0,0,0,0,0,0,0.1351,0.135,0.1296,0.1296,0.1295,0.1281,0.1281,0.128,0.1317,0.1318,0.1319,0.1321,0.13,0.1298,0.1296,0,0,0,0,0,0,0,0,0,0,0,0,0,0.1331,0.135,0.1296,0.1312,0.1313,0.1281,0.1281,0.128,0.1316,0.1318,0.132,0.1321,0.1301,0.1298,0.1296,0.1246,0,0,0.1289,0.1288,0,0,0,0,0,0,0,0,0.1332,0.1329,0.131,0.1311,0.1312,0.1303,0.1293,0.1269,0.1316,0.1315,0.132,0.1322,0.1299,0.1297,0.129,0.1245,0.1244,0.1288,0.1287,0.1286,0.1285,0,0,0,0,0,0,0,0.1333,0.1329,0.129,0.1309,0.1311,0.1318,0.1317,0.1288,0.1297,0.1315,0.1318,0.1316,0.13,0.1292,0.129,0.1244,0.1288,0.1286,0.1285,0.1284,0.1157,0.1156,0,0,0,0,0,0,0.1333,0.133,0.129,0.1289,0.1327,0.1316,0.1315,0.1304,0.1298,0.1298,0.1314,0.1318,0.1295,0.1292,0.1289,0.123,0.1286,0.1284,0.1282,0.1159,0.1157,0.1155,0,0,0,0,0,0,0.1334,0.1329,0.1291,0.1311,0.1306,0.1313,0.13,0.1303,0.1295,0.1297,0.1298,0.1305,0.1297,0.1293,0.1257,0.1229,0.1282,0.128,0.1162,0.1159,0.1156,0.1111,0,0,0,0,0,0,0.1336,0.133,0.1311,0.131,0.1305,0.126,0.1299,0.1301,0.1291,0.1295,0.1289,0.1289,0.1298,0.126,0.1254,0.1227,0.1278,0.1164,0.116,0.1157,0.1114,0.1107,0.11,0,0,0,0,0,0.1338,0.1298,0.131,0.1305,0.1283,0.1258,0.1255,0.1267,0.1289,0.127,0.1272,0.1289,0.1234,0.1256,0.125,0.1221,0.1166,0.1161,0.1157,0.1118,0.1108,0.11,0,0,0,0,0,0,0.1293,0.1298,0.1312,0.1271,0.1264,0.1264,0.1241,0.1257,0.1242,0.1246,0.1261,0.1259,0.122,0.1218,0.1242,0.1173,0.1203,0.1198,0.1176,0.1166,0.1159,0.1159,0.1276,0,0,0,0,0,0.128,0.1261,0.1265,0.1228,0.1225,0.1233,0.1223,0.1233,0.1226,0.1223,0.1222,0.1213,0.1194,0.118,0.1163,0.1115,0.1114,0.1093,0.1085,0.1079,0.1073,0.1048,0.1038,0.1141,0.1141,0.1141,0,0,0.1249,0.1249,0.1236,0.1219,0.1216,0.1194,0.123,0.1206,0.119,0.1219,0.1185,0.1184,0.1175,0.1134,0.1115,0.113,0.1045,0.1074,0.1069,0.1066,0.1042,0.1032,0.1024,0.1138,0.1139,0.1139,0,0,0.1183,0.1182,0.1151,0.1147,0.1142,0.1148,0.1141,0.1139,0.114,0.1108,0.1129,0.1109,0.1076,0.1069,0.106,0.0994,0.1009,0.0988,0.0948,0.0923,0.0915,0.0908,0.0882,0.0873,0.0982,0.0982,0.0982,0,0.1145,0.1115,0.1133,0.1108,0.1099,0.1127,0.1095,0.109,0.1078,0.1071,0.1089,0.1048,0.1044,0.1001,0.0985,0.0978,0.0969,0.0987,0.0915,0.0908,0.0901,0.0877,0.0868,0.098,0.098,0.098,0.098,0,0.1069,0.1048,0.1024,0.1014,0.1003,0.0974,0.0986,0.0973,0.0985,0.0989,0.0955,0.0952,0.0934,0.0925,0.0936,0.0884,0.0893,0.0913,0.0943,0.0889,0.0866,0.0857,0.0976,0.0977,0.0977,0.0978,0,0,0.0971,0.0974,0.0964,0.096,0.0957,0.094,0.0913,0.0898,0.0886,0.0877,0.0854,0.0826,0.0845,0.0836,0.0846,0.0824,0.077,0.0847,0.0847,0.0831,0.0711,0.0695,0.0684,0.0782,0.078,0.0779,0.0712,0,0.0905,0.086,0.0875,0.0829,0.0809,0.0836,0.0813,0.0807,0.0811,0.0794,0.0798,0.0778,0.0805,0.0799,0.0779,0.0781,0.0746,0.0787,0.0758,0.0757,0.0757,0.0673,0.0655,0.0592,0.0703,0.0702,0.0701,0,0.082,0.0811,0.0763,0.0764,0.0756,0.0735,0.0722,0.0706,0.0701,0.0705,0.0696,0.0712,0.0684,0.0717,0.0678,0.0705,0.0695,0.0694,0.0692,0.0688,0.0724,0.0664,0.0572,0.0562,0.0688,0.0689,0.069,0,0.0752,0.0727,0.0695,0.0691,0.0692,0.0676,0.0676,0.0673,0.0663,0.0652,0.0645,0.063,0.0621,0.0609,0.062,0.0643,0.0579,0.0613,0.058,0.058,0.0563,0.0563,0.0465,0.056,0.056,0.0561,0.0561,0,0.0675,0.0644,0.0665,0.0644,0.0611,0.0629,0.0595,0.0597,0.0594,0.0574,0.0597,0.0578,0.0594,0.0576,0.0584,0.055,0.0547,0.0548,0.055,0.0545,0.0544,0.0536,0.054,0.0558,0.0559,0.0559,0.0559,0,0.0591,0.0604,0.0571,0.0576,0.0577,0.0551,0.0554,0.0535,0.0542,0.0517,0.0512,0.0521,0.0501,0.0512,0.049,0.0496,0.0452,0.0461,0.0454,0.0455,0.0421,0.0424,0.0313,0.0299,0.0404,0.0403,0.0402,0,0.054,0.0517,0.052,0.0509,0.0508,0.049,0.0481,0.0499,0.0488,0.0481,0.0463,0.0445,0.0432,0.0398,0.0402,0.0386,0.0393,0.0356,0.0391,0.0386,0.0391,0.0391,0.0388,0.0348,0.0347,0.0346,0.0345,0,0.0447,0.0455,0.0441,0.043,0.0419,0.0411,0.0404,0.0394,0.0412,0.0398,0.0379,0.0369,0.0348,0.033,0.0316,0.0314,0.0331,0.0334,0.0326,0.0318,0.0315,0.0315,0.0432,0.0336,0.0337,0.0337,0.0338,0.0338,0.0376,0.0357,0.0357,0.0341,0.0339,0.0333,0.0315,0.0321,0.0306,0.0292,0.0303,0.028,0.0276,0.026,0.0256,0.0237,0.0252,0.024,0.0236,0.0232,0.0227,0.032,0.0235,0.0236,0.0236,0.0236,0.0236,0,0.0283,0.0285,0.027,0.0261,0.0249,0.027,0.0264,0.0252,0.0232,0.0228,0.0215,0.0193,0.0176,0.018,0.0164,0.0148,0.0156,0.0143,0.0143,0.0142,0.0216,0.0224,0.0137,0.0137,0.0137,0.0137,0.0137,0.0137,0.0232,0.0201,0.021,0.0177,0.0179,0.0158,0.0153,0.0147,0.0144,0.0119,0.0106,0.0109,0.0108,0.0093,0.0078,0.008,0.0072,0.0056,0.006,0.0128,0.0137,0.0146,0.0154,0.0054,0.0054,-0.0012,-0.0013,-0.0013]},{"header":{"parameterUnit":"m.s-1","parameterCategory":1,"la1":30.2991,"la2":30.254,"lo1":-89.0895,"lo2":-89.0444,"dy":0.0017,"dx":0.0017,"nx":28,"ny":28,"refTime":"2023-03-13T21:00:00:Z","depth":0,"parameterNumber":3,"parameterNumberName":"V-component_of_WINDS"},"data":[0,0,0,0,0,0,0,0,0,0,0,0,0,0,0,0,0,0,0,0,0,0,0,0,0,0,0,0,0,0,0,0,0,0,0,0,0,0,0,0,0,0,0,0,0,0,0,0,0,0,0,0,0,0,0,0,0,0,-6.8859,-6.886,0,-6.8955,-6.8956,-6.8957,-6.8839,-6.8835,-6.8831,-6.8827,-6.8921,-6.8928,-6.8934,0,0,0,0,0,0,0,0,0,0,0,0,0,-6.8569,-6.8575,-6.8859,-6.886,-6.8861,-6.8955,-6.8956,-6.8957,-6.884,-6.8835,-6.883,-6.8825,-6.8919,-6.8927,-6.8935,0,0,0,0,0,0,0,0,0,0,0,0,0,-6.8683,-6.8577,-6.8858,-6.8814,-6.8811,-6.8955,-6.8956,-6.8958,-6.8841,-6.8835,-6.8828,-6.8822,-6.8916,-6.8926,-6.8936,-6.9127,0,0,-6.8966,-6.897,0,0,0,0,0,0,0,0,-6.8677,-6.8694,-6.8819,-6.8817,-6.8814,-6.8879,-6.8888,-6.9014,-6.8843,-6.883,-6.8826,-6.8819,-6.8912,-6.8922,-6.8954,-6.9131,-6.9135,-6.8967,-6.8973,-6.8977,-6.898,0,0,0,0,0,0,0,-6.8669,-6.8689,-6.8896,-6.8821,-6.8818,-6.8788,-6.8797,-6.8912,-6.8906,-6.883,-6.8822,-6.8835,-6.8909,-6.8945,-6.8955,-6.9136,-6.8966,-6.8975,-6.8981,-6.8985,-6.9474,-6.9481,0,0,0,0,0,0,-6.8667,-6.8683,-6.8893,-6.8899,-6.8728,-6.8798,-6.8808,-6.8864,-6.8904,-6.8904,-6.8841,-6.8829,-6.8931,-6.8944,-6.8958,-6.9184,-6.8977,-6.8986,-6.8992,-6.9467,-6.9476,-6.9483,0,0,0,0,0,0,-6.8661,-6.8687,-6.8889,-6.8789,-6.8813,-6.881,-6.8874,-6.887,-6.8905,-6.8912,-6.891,-6.8878,-6.8927,-6.8944,-6.9086,-6.9186,-6.899,-6.8999,-6.9459,-6.947,-6.948,-6.9638,0,0,0,0,0,0,-6.8653,-6.8685,-6.8759,-6.8792,-6.8818,-6.9017,-6.888,-6.8876,-6.8923,-6.8909,-6.8947,-6.8947,-6.8923,-6.9072,-6.9096,-6.9196,-6.9007,-6.945,-6.9464,-6.9476,-6.9624,-6.9653,-6.9678,0,0,0,0,0,-6.8643,-6.8799,-6.8763,-6.8789,-6.8911,-6.9023,-6.9038,-6.9009,-6.8931,-6.9005,-6.9009,-6.8946,-6.9171,-6.9087,-6.9113,-6.9218,-6.9443,-6.946,-6.9475,-6.9612,-6.9647,-6.9677,0,0,0,0,0,0,-6.8776,-6.8802,-6.8763,-6.8934,-6.8978,-6.9003,-6.9095,-6.9047,-6.9112,-6.9096,-6.9055,-6.9065,-6.9216,-6.923,-6.9137,-6.9404,-6.9294,-6.9316,-6.9389,-6.9423,-6.9449,-6.9443,-6.9015,0,0,0,0,0,-6.8826,-6.8917,-6.8934,-6.9083,-6.9107,-6.9098,-6.9145,-6.9119,-6.9162,-6.9179,-6.9194,-6.9237,-6.9317,-6.937,-6.9445,-6.9625,-6.9632,-6.971,-6.9737,-6.9759,-6.9778,-6.9875,-6.991,-6.9536,-6.9536,-6.9535,0,0,-6.8928,-6.8954,-6.9013,-6.911,-6.9141,-6.9235,-6.9114,-6.9218,-6.9287,-6.9194,-6.9329,-6.9342,-6.9387,-6.9549,-6.9621,-6.9566,-6.9883,-6.9779,-6.9797,-6.9804,-6.9895,-6.993,-6.9962,-6.9547,-6.9545,-6.9543,0,0,-6.9163,-6.9192,-6.932,-6.9353,-6.9402,-6.9394,-6.9425,-6.9459,-6.9464,-6.9599,-6.9531,-6.9612,-6.9751,-6.9786,-6.9822,-7.0071,-7.0015,-7.0096,-7.0236,-7.0331,-7.036,-7.0386,-7.0475,-7.0507,-7.0115,-7.0116,-7.0116,0,-6.9285,-6.9425,-6.9391,-6.9501,-6.9545,-6.9467,-6.9595,-6.9629,-6.9699,-6.973,-6.9668,-6.9842,-6.9866,-7.0035,-7.0096,-7.0128,-7.0161,-7.0091,-7.0359,-7.0385,-7.0408,-7.0492,-7.0526,-7.0125,-7.0124,-7.0123,-7.0122,0,-6.9571,-6.967,-6.9766,-6.9838,-6.9893,-7.0011,-6.9994,-7.0054,-7.0022,-7.0021,-7.0159,-7.0186,-7.0265,-7.0303,-7.0272,-7.0468,-7.0432,-7.0366,-7.0254,-7.0454,-7.0532,-7.0564,-7.0139,-7.0135,-7.0133,-7.013,0,0,-6.9893,-6.9945,-6.9981,-7.0012,-7.006,-7.0134,-7.0249,-7.0327,-7.0379,-7.0429,-7.0524,-7.0643,-7.0582,-7.0623,-7.0596,-7.0679,-7.0874,-7.0601,-7.0601,-7.0651,-7.1091,-7.1141,-7.1179,-7.0837,-7.0843,-7.0848,-7.1087,0,-7.0129,-7.0329,-7.0302,-7.0493,-7.0583,-7.051,-7.061,-7.0649,-7.0652,-7.0727,-7.0728,-7.0814,-7.0726,-7.075,-7.0829,-7.0834,-7.0962,-7.0816,-7.0924,-7.0928,-7.0915,-7.122,-7.1274,-7.1498,-7.1117,-7.1123,-7.1126,0,-7.0431,-7.0494,-7.0696,-7.073,-7.0766,-7.0857,-7.0926,-7.0999,-7.1042,-7.1037,-7.1084,-7.1042,-7.1155,-7.1042,-7.1196,-7.1098,-7.114,-7.1149,-7.1157,-7.1166,-7.104,-7.1237,-7.1569,-7.1603,-7.1174,-7.117,-7.1167,0,-7.0646,-7.0781,-7.0919,-7.0948,-7.0991,-7.1056,-7.1077,-7.1113,-7.1162,-7.1222,-7.1253,-7.1325,-7.1365,-7.1421,-7.1399,-7.1318,-7.1558,-7.1443,-7.1557,-7.1558,-7.1611,-7.1608,-7.1954,-7.1638,-7.1638,-7.1637,-7.1636,0,-7.0912,-7.1038,-7.1016,-7.1101,-7.124,-7.1207,-7.1344,-7.1356,-7.1389,-7.1474,-7.1414,-7.1495,-7.146,-7.1538,-7.1522,-7.1652,-7.167,-7.1669,-7.1663,-7.1675,-7.1675,-7.1702,-7.1686,-7.1646,-7.1644,-7.1642,-7.1641,0,-7.1176,-7.1166,-7.1312,-7.1341,-7.1351,-7.1452,-7.1476,-7.1555,-7.1553,-7.1661,-7.1684,-7.168,-7.1769,-7.1752,-7.185,-7.1838,-7.2002,-7.1977,-7.1989,-7.1983,-7.2098,-7.2087,-7.2474,-7.2522,-7.2175,-7.2178,-7.2181,0,-7.1347,-7.1442,-7.1482,-7.1536,-7.1562,-7.1648,-7.1698,-7.1669,-7.1723,-7.1779,-7.1851,-7.1934,-7.2,-7.2145,-7.2149,-7.2223,-7.2199,-7.233,-7.221,-7.2219,-7.2202,-7.2196,-7.2206,-7.2353,-7.2357,-7.2361,-7.2363,0,-7.1651,-7.1642,-7.1717,-7.1791,-7.1852,-7.1909,-7.1959,-7.2006,-7.198,-7.2044,-7.2135,-7.2186,-7.2286,-7.237,-7.2439,-7.2458,-7.2407,-7.2401,-7.2431,-7.2444,-7.2447,-7.2447,-7.2053,-7.2392,-7.2389,-7.2387,-7.2386,-7.2384,-7.1874,-7.1955,-7.1996,-7.2082,-7.2117,-7.2165,-7.2241,-7.2249,-7.2325,-7.2405,-7.2382,-7.2486,-7.2525,-7.2613,-7.264,-7.2719,-7.267,-7.2714,-7.2725,-7.2737,-7.2751,-7.2435,-7.2731,-7.2731,-7.273,-7.2729,-7.2728,0,-7.2175,-7.2198,-7.2277,-7.235,-7.2417,-7.2365,-7.2417,-7.2477,-7.2569,-7.2611,-7.2677,-7.2781,-7.2862,-7.2873,-7.2949,-7.301,-7.2989,-7.3031,-7.3027,-7.3032,-7.279,-7.2756,-7.3048,-7.3048,-7.3048,-7.3047,-7.3047,-7.3047,-7.234,-7.2475,-7.2471,-7.2622,-7.2644,-7.2746,-7.2781,-7.2825,-7.2858,-7.2978,-7.3045,-7.3052,-7.3082,-7.3159,-7.3231,-7.3232,-7.3263,-7.3315,-7.3307,-7.3081,-7.3049,-7.3019,-7.2987,-7.3322,-7.3322,-7.3542,-7.3544,-7.3545]}]]